This demonstration page uses our WeatherBlox Daily Observations layout. Learn more.

Left ArrowRight Arrow

34.74481, -87.66753

Hourly Observations for May 27, 2015

Temp ( °F °C ) Dew Point ( °F °C ) Humidity (%) Winds ( mph kmh ) Pressure ( in mb ) Visibility ( mi km ) Precip ( " mm )
12:50 am 00:50 Mostly Cloudy 70 21 66 19 88 88 S 7 11 30.12 1020 10 16 0.00 0.00
12:53 am 00:53 Mostly Cloudy 70 21.1 67 19.4 90 90 S 7 11 30.12 1020 10 16 0.00 0.00
1:06 am 01:06 Cloudy 71 21.7 67 19.4 87 87 S 8 13 30.09 1019 10 16 0.00 0.00
1:28 am 01:28 Partly Cloudy 70 21.1 67 19.4 90 90 S 6 9 30.09 1019 10 16 0.00 0.00
1:53 am 01:53 Mostly Cloudy 70 21.1 67 19.4 90 90 SSE 6 9 30.10 1019 10 16 0.00 0.00
2:53 am 02:53 Cloudy 71 21.7 68 20 90 90 SSE 6 9 30.12 1020 10 16 0.00 0.00
3:53 am 03:53 Cloudy 70 21.1 68 20 93 93 SSE 5 7 30.13 1020 10 16 0.00 0.00
4:53 am 04:53 Cloudy 70 21.1 67 19.4 90 90 SSE 5 7 30.13 1020 10 16 0.00 0.00
5:53 am 05:53 Cloudy 70 21.1 67 19.4 90 90 S 5 7 30.14 1021 10 16 0.00 0.00
6:42 am 06:42 Partly Cloudy 71 21.7 68 20 90 90 SSE 7 11 30.12 1020 10 16 0.00 0.00
6:53 am 06:53 Partly Cloudy 72 22.2 68 20 87 87 SSE 6 9 30.15 1021 10 16 0.00 0.00
7:53 am 07:53 Partly Cloudy 74 23.3 68 20 82 82 SSE 10 17 30.16 1021 10 16 0.00 0.00
8:00 am 08:00 Mostly Cloudy 74 23.3 67 19.4 79 79 S 8 13 30.15 1021 10 16 0.00 0.00
8:28 am 08:28 Partly Cloudy 75 23.9 67 19.4 76 76 S 7 11 30.15 1021 10 16 0.00 0.00
8:31 am 08:31 Mostly Cloudy 75 23.9 68 20 79 79 SSE 6 9 30.15 1021 10 16 0.00 0.00
8:39 am 08:39 Mostly Cloudy 75 23.9 67 19.4 76 76 S 8 13 30.18 1022 10 16 0.00 0.00
8:53 am 08:53 Cloudy 75 23.9 67 19.4 76 76 S 8 13 30.19 1022 10 16 0.00 0.00
9:22 am 09:22 Mostly Cloudy 76 24.4 66 18.9 72 72 S 6 9 30.18 1022 10 16 0.00 0.00
9:53 am 09:53 Mostly Cloudy 77 25 66 18.9 69 69 S 6 9 30.20 1023 10 16 0.00 0.00
10:03 am 10:03 Partly Cloudy 77 25 66 18.9 69 69 SSE 5 7 30.18 1022 10 16 0.00 0.00
10:39 am 10:39 Mostly Cloudy 77 25 66 18.9 69 69 SE 5 7 30.18 1022 10 16 0.00 0.00
10:53 am 10:53 Mostly Cloudy 80 26.7 67 19.4 64 64 VRB 6 9 30.18 1022 10 16 0.00 0.00
11:43 am 11:43 Cloudy with Nearby Thunderstorms 78 25.6 67 19.4 69 69 SSW 6 9 30.18 1022 10 16 0.00 0.00
11:53 am 11:53 Cloudy with Nearby Thunderstorms 79 26.1 67 19.4 67 67 SW 6 9 30.20 1023 10 16 0.00 0.00
12:06 pm 12:06 Cloudy with Nearby Thunderstorms 69 20.6 60 15.6 73 73 NW 8 13 30.18 1022 10 16 0.00 0.03
12:38 pm 12:38 Partly Cloudy with Nearby Thunderstorms 70 21.1 62 16.7 76 76 ENE 3 6 30.15 1021 10 16 0.00 0.03
12:45 pm 12:45 Mostly Sunny 71 21.7 62 16.7 73 73 Calm 30.15 1021 10 16 0.00 0.03
12:53 pm 12:53 Mostly Sunny 73 22.8 62 16.7 69 69 Calm 30.17 1022 10 16 0.00 0.03
1:53 pm 13:53 Sunny 79 26.1 65 18.3 62 62 Calm 30.16 1021 10 16 0.00 0.00
2:53 pm 14:53 undefined 81 27.2 67 19.4 62 62 VRB 3 6 30.14 1021 10 16 0.00 0.00
3:53 pm 15:53 Partly Cloudy 80 26.7 67 19.4 64 64 VRB 5 7 30.12 1020 10 16 0.00 0.00
4:04 pm 16:04 Partly Cloudy with Nearby Thunderstorms 80 26.7 67 19.4 64 64 VRB 5 7 30.09 1019 10 16 0.00 0.00
4:50 pm 16:50 Cloudy with Strong Thunderstorms 75 24 70 21 83 83 SSW 13 20 30.15 1021 3 4 0.01 0.25
4:53 pm 16:53 Cloudy with Strong Thunderstorms 73 22.8 69 20.6 87 87 VRB 3 6 30.16 1021 1 2 0.02 0.51
5:06 pm 17:06 Cloudy with Strong Thunderstorms 72 22.2 69 20.6 91 91 NW 7 11 30.15 1021 2 2 0.11 2.79
5:14 pm 17:14 Cloudy with Strong Thunderstorms 72 22.2 69 20.6 91 91 NW 6 9 30.12 1020 3 5 0.19 4.83
5:22 pm 17:22 Cloudy with Nearby Thunderstorms 71 21.7 68 20 90 90 NW 5 7 30.12 1020 4 6 0.26 6.60
5:53 pm 17:53 Cloudy with Thunderstorms 71 21.7 68 20 90 90 SSE 5 7 30.14 1021 7 11 0.47 11.94
6:19 pm 18:19 Cloudy with Strong Thunderstorms 71 21.7 68 20 90 90 WSW 10 17 30.15 1021 4 6 0.12 3.05
6:42 pm 18:42 Cloudy with Nearby Thunderstorms 69 20.6 67 19.4 93 93 W 9 15 30.15 1021 7 11 0.20 5.08
6:53 pm 18:53 Cloudy with Thunderstorms 69 20.6 67 19.4 93 93 W 8 13 30.16 1021 8 13 0.23 5.84
7:07 pm 19:07 Cloudy with Nearby Thunderstorms 69 20.6 67 19.4 93 93 W 5 7 30.15 1021 7 11 0.04 1.02
7:42 pm 19:42 Cloudy with Thunderstorms 69 20.6 66 18.9 90 90 SE 8 13 30.15 1021 9 14 0.12 3.05
7:53 pm 19:53 Cloudy with Thunderstorms 69 20.6 66 18.9 90 90 SE 8 13 30.16 1022 10 16 0.14 3.56
8:10 pm 20:10 Cloudy with Rain 69 20.6 66 18.9 90 90 SE 9 15 30.15 1021 9 14 0.03 0.76
8:33 pm 20:33 Cloudy with Nearby Thunderstorms 68 20 66 18.9 93 93 SE 14 22 30.15 1021 9 14 0.07 1.78
8:48 pm 20:48 Cloudy with Rain 68 20 66 19 94 94 SE 14 22 30.15 1021 10 16 0.09 2.29
8:53 pm 20:53 Cloudy with Rain 68 20 66 18.9 93 93 SE 12 19 30.17 1022 10 16 0.10 2.54
9:53 pm 21:53 Mostly Cloudy with Light Rain 68 20 65 18.3 90 90 ESE 8 13 30.18 1022 10 16 0.09 2.29
10:53 pm 22:53 Mostly Clear 69 20.6 64 17.8 84 84 ESE 9 15 30.15 1021 10 16 0.09 2.29
11:53 pm 23:53 Mostly Cloudy 68 20 64 17.8 87 87 SSE 8 13 30.15 1021 10 16 0.02 0.51

Powered by AerisWeather